Terminal Aerodrome Forecast
Issued by NWS

Home | Current Version | Previous Version | Graphics & Text | Print | Product List | Glossary On
Versions: 1 2 3 4 5 6 7 8 9 10 11 12 13 14 15 16 17 18 19
000
FTUS42 KMHX 190000 AAA
TAFOAJ
TAF AMD
KOAJ 190027Z 1900/1924 11006KT 5SM BR BKN030
     FM190100 20005KT P6SM VCTS SCT025CB BKN050
     FM190800 23003KT 4SM BR SCT040
     FM191300 24006KT P6SM SCT040
     FM191900 26008KT P6SM BKN030
      AMD LTD TO CLD VIS AND WIND=

USA.gov is the U.S. government's official web portal to all federal, state and local government web resources and services.